Location: *
(43.0833°N, 13.0500°E)
Time: 16:58:47
(UTC+00:00)

Cosmos 1356 Rocket - Pass Details

Date: 15 November 2019
Orbit: 544 x 598 km, 81.2° (Epoch: 05 December)

Event Time Altitude Azimuth Distance (km) Brightness Sun altitude
Rises 16:31:55 0° 174° (S) 2,748 7.0 -8.9°
Reaches altitude 10° 16:34:07 10° 168° (SSE) 1,866 6.1 -9.3°
Maximum altitude 16:38:04 46° 95° (E) 780 3.7 -10.0°
Drops below altitude 10° 16:42:07 10° 22° (NNE) 1,913 5.7 -10.7°
Sets 16:44:24 0° 16° (NNE) 2,826 6.6 -11.1°
